Location: Valdosta
(30.8330°N, 83.2790°W)
Time: 15:05:53
(UTC-05:00)

Amateur Radio Satellites - All Passes

Search period start: 18 January 2017 14:35
Search period end: 19 January 2017 14:35
Location: Valdosta, 30.8330°N, 83.2790°W

Satellite Date Start Highest point End Downlink Frequencies (MHz)
Time Altitude Azimuth
YUBILEINY 18 Jan 14:46:06 14:54:52 76° 93° (E) 15:03:41 435.215
Cosmos 2491 18 Jan 14:46:47 14:55:19 58° 269° (W) 15:03:52 435.465 / 435.565
BEESAT 18 Jan 14:50:01 14:54:32 41° 99° (E) 14:59:01 436.000
SWISSCUBE 18 Jan 14:51:18 14:55:57 48° 100° (E) 15:00:34 437.505
DANDE 18 Jan 14:59:59 15:06:53 32° 76° (ENE) 15:14:04 436.750
AO-7 18 Jan 15:01:06 15:09:18 64° 70° (ENE) 15:17:33 29.400- 29.500
MOZHAYETS 4 18 Jan 15:07:07 15:10:05 17° 95° (E) 15:13:02
AO-85 18 Jan 15:17:19 15:21:24 27° 302° (WNW) 15:25:17 145.980
TISAT 1 18 Jan 15:18:15 15:20:13 13° 291° (WNW) 15:22:10 437.305
Gurwin Techsat 1B 18 Jan 15:19:39 15:21:25 12° 267° (W) 15:23:11 435.225
Cosmos 2504 18 Jan 15:30:56 15:39:46 82° 94° (E) 15:48:11 435.465 / 435.565
AIST 1 18 Jan 15:41:40 15:43:58 14° 284° (WNW) 15:46:17
SRMSAT 18 Jan 15:50:01 15:52:14 12° 161° (SSE) 15:54:27 437.500
ITUPSAT 1 18 Jan 15:51:31 15:55:59 40° 287° (WNW) 16:00:28 437.325
ITAMSAT 1 18 Jan 15:59:01 16:03:10 25° 263° (W) 16:07:21 435.822/435.867
KKS-1 18 Jan 16:03:00 16:06:16 20° 96° (E) 16:09:31 437.445
BRITE-PL 18 Jan 16:04:46 16:09:33 29° 71° (ENE) 16:14:21 437.365/2234.400
M-CUBED/EXP-1 PRIME 18 Jan 16:06:35 16:09:16 23° 102° (ESE) 16:11:53 437.505
JUGNU 18 Jan 16:10:53 16:15:47 27° 176° (S) 16:20:44 437.505
BEESAT 3 18 Jan 16:13:58 16:17:14 27° 112° (ESE) 16:20:34 437.485
CUSAT 1 18 Jan 16:16:22 16:22:42 27° 274° (W) 16:28:37 437.405
GOMX 1 18 Jan 16:22:03 16:25:19 16° 68° (ENE) 16:28:30 467.674
BEESAT 18 Jan 16:29:02 16:31:55 16° 292° (WNW) 16:34:48 436.000
SWISSCUBE 18 Jan 16:30:53 16:33:16 14° 293° (WNW) 16:35:39 437.505
DANDE 18 Jan 16:42:04 16:49:38 49° 268° (W) 16:57:33 436.750
MOZHAYETS 4 18 Jan 16:43:03 16:47:15 35° 287° (WNW) 16:51:28
AUBIESAT-1 18 Jan 16:44:38 16:47:58 72° 106° (ESE) 16:51:13 437.475
YUBILEINY 18 Jan 16:46:53 16:52:24 18° 290° (WNW) 16:58:00 435.215
BEESAT 2 18 Jan 16:53:36 16:57:06 32° 112° (ESE) 17:00:39 435.950
CUTE-I 18 Jan 16:55:03 16:57:38 14° 65° (ENE) 17:00:14 437.470
AO-7 18 Jan 16:56:18 17:02:24 22° 263° (W) 17:08:33 29.400- 29.500
STARS 18 Jan 17:01:39 17:05:48 43° 100° (E) 17:09:57 437.465
DOVE 4 18 Jan 17:12:05 17:15:39 19° 70° (ENE) 17:19:05 437.250
CUBESAT XI-V 18 Jan 17:22:25 17:27:07 82° 102° (ESE) 17:31:45 437.345
NOAA 18 18 Jan 17:23:38 17:26:40 15° 65° (ENE) 17:29:41 137.9125
O/OREOS (USA 219) 18 Jan 17:25:29 17:30:00 87° 71° (ENE) 17:34:32 437.305
Cosmos 2504 18 Jan 17:28:45 17:33:48 16° 289° (WNW) 17:38:45 435.465 / 435.565
Cubesat XI-IV 18 Jan 17:34:58 17:39:46 36° 71° (ENE) 17:44:34 437.490
SRMSAT 18 Jan 17:36:13 17:40:49 23° 170° (S) 17:45:26 437.500
KKS-1 18 Jan 17:39:02 17:42:44 27° 289° (WNW) 17:46:25 437.445
HORYU 2 18 Jan 17:40:48 17:45:08 57° 259° (W) 17:49:28 437.375
M-CUBED/EXP-1 PRIME 18 Jan 17:42:11 17:43:30 12° 295° (WNW) 17:44:48 437.505
BRITE-PL 18 Jan 17:42:51 17:47:47 31° 264° (W) 17:52:49 437.365/2234.400
NOAA 15 18 Jan 17:51:20 17:56:28 57° 74° (ENE) 18:01:40 137.62
BEESAT 3 18 Jan 17:52:11 17:54:50 17° 305° (NW) 17:57:30 437.485
GOMX 1 18 Jan 17:57:35 18:02:55 52° 260° (W) 18:08:07 467.674
LilacSat-2 18 Jan 17:59:00 18:02:45 71° 76° (ENE) 18:06:30 437.200
JUGNU 18 Jan 17:59:25 18:04:19 26° 186° (S) 18:09:14 437.505
SO-50 18 Jan 18:09:57 18:14:27 80° 63° (ENE) 18:18:53 436.795
CUTE-I 18 Jan 18:31:55 18:37:07 58° 259° (W) 18:42:21 437.470
BEESAT 2 18 Jan 18:32:32 18:34:56 16° 306° (NW) 18:37:22 435.950
STARS 18 Jan 18:39:49 18:41:43 13° 293° (WNW) 18:43:38 437.465
DOVE 4 18 Jan 18:48:17 18:53:02 37° 261° (W) 18:57:35 437.250
HO-68 18 Jan 18:49:01 18:55:37 41° 68° (ENE) 19:02:15 435.675
CINEMA 3 18 Jan 18:55:25 18:59:52 54° 76° (ENE) 19:04:07 145.822/145.860
NOAA 18 18 Jan 19:01:22 19:06:46 57° 258° (WSW) 19:12:11 137.9125
CUTE 1.7 + AOD 2 18 Jan 19:15:15 19:19:18 47° 75° (ENE) 19:23:23 437.475
Cubesat XI-IV 18 Jan 19:15:49 19:19:49 22° 264° (W) 19:23:50 437.490
SRMSAT 18 Jan 19:24:25 19:29:30 29° 180° (S) 19:34:34 437.500
NOAA 15 18 Jan 19:34:09 19:36:30 13° 267° (W) 19:38:52 137.62
GONETS M04 18 Jan 19:34:16 19:41:48 34° 86° (E) 19:49:22
CANX-2 18 Jan 19:43:54 19:48:04 60° 260° (W) 19:52:17 2200.000
JUGNU 18 Jan 19:49:02 19:52:47 17° 195° (SSW) 19:56:32 437.505
Cosmos 2499 18 Jan 19:50:20 19:58:45 58° 92° (E) 20:06:38 435.465 / 435.565
STRAND 1 18 Jan 19:53:56 19:59:06 84° 102° (ESE) 20:04:15 437.568
SEEDS 18 Jan 19:59:19 20:03:30 72° 260° (W) 20:07:44 437.485
CUBEBUG 2 18 Jan 20:04:16 20:08:28 74° 78° (ENE) 20:12:37 437.445
Oscar 11 18 Jan 20:05:32 20:08:44 21° 71° (ENE) 20:11:56 145.826/435.025
COMPASS 1 18 Jan 20:08:42 20:12:52 89° 261° (W) 20:17:05 437.405
AIST 2 18 Jan 20:09:52 20:13:56 82° 295° (WNW) 20:18:06 435.215
AAUSAT CUBESAT 2 18 Jan 20:22:08 20:26:17 81° 258° (WSW) 20:30:29 437.432
UWE-3 18 Jan 20:37:02 20:41:11 71° 259° (W) 20:45:20 435.000/436.395/437.385
HO-68 18 Jan 20:37:09 20:43:18 30° 262° (W) 20:49:29 435.675
FUNcube-1 18 Jan 20:38:33 20:42:36 57° 76° (ENE) 20:46:39 145.935
ZACube-1 18 Jan 21:00:24 21:04:30 64° 259° (WSW) 21:08:37 437.345
SRMSAT 18 Jan 21:13:31 21:18:10 24° 190° (S) 21:22:49 437.500
HUMSAT D 18 Jan 21:29:21 21:32:59 32° 73° (ENE) 21:36:40 437.325/437.525
GONETS M04 18 Jan 21:30:18 21:38:19 41° 282° (WNW) 21:46:26
Oscar 11 18 Jan 21:41:09 21:44:40 25° 263° (W) 21:48:13 145.826/435.025
UNISAT 6 18 Jan 21:43:04 21:45:58 17° 95° (E) 21:48:53 437.425
Cosmos 2499 18 Jan 21:45:35 21:52:05 24° 285° (WNW) 21:58:21 435.465 / 435.565
ISS 18 Jan 21:49:06 21:51:46 23° 128° (SE) 21:54:26 145.825
JAS-2 18 Jan 21:53:11 21:55:20 11° 92° (E) 21:57:31 435.910
PRISM 18 Jan 21:54:36 21:58:43 89° 282° (WNW) 22:02:47 437.425
TIGRISAT 18 Jan 21:56:29 22:00:00 23° 97° (E) 22:03:34 435.000
DELFI C3 18 Jan 21:56:57 22:00:48 48° 260° (W) 22:04:43 145.870
BY70-1 18 Jan 22:05:49 22:07:20 13° 69° (ENE) 22:08:54 436.1900
ANTELSAT 18 Jan 22:10:42 22:14:48 36° 99° (E) 22:18:59 437.575/2403.000
CUBEBUG 1 18 Jan 23:00:51 23:04:32 26° 72° (ENE) 23:08:13 437.445
SRMSAT 18 Jan 23:04:17 23:06:45 13° 198° (SSW) 23:09:13 437.500
HUMSAT D 18 Jan 23:06:34 23:08:39 14° 266° (W) 23:10:44 437.325/437.525
RS-15 18 Jan 23:09:23 23:20:11 46° 107° (ESE) 23:31:28 29.354- 29.394
50 SAT 18 Jan 23:11:01 23:12:08 11° 69° (ENE) 23:13:16 437.505
AISAT 18 Jan 23:12:25 23:15:55 23° 71° (ENE) 23:19:25 437.250
UNISAT 6 18 Jan 23:18:41 23:22:39 33° 287° (WNW) 23:26:42 437.425
ESTCUBE 1 18 Jan 23:25:18 23:29:49 84° 260° (W) 23:34:22 437.505/2401.250
ISS 18 Jan 23:25:35 23:28:11 22° 322° (NW) 23:30:47 145.825
TIGRISAT 18 Jan 23:32:57 23:36:33 25° 288° (WNW) 23:40:12 435.000
JAS-2 18 Jan 23:33:28 23:40:48 82° 103° (ESE) 23:48:39 435.910
QB50P1 18 Jan 23:33:55 23:37:28 26° 97° (E) 23:41:00 145.935-145.965
BY70-1 18 Jan 23:35:48 23:37:31 15° 266° (W) 23:39:19 436.1900
POLYITAN 1 18 Jan 23:37:20 23:41:01 29° 98° (E) 23:44:43 437.675
QB50P2 18 Jan 23:38:25 23:42:13 32° 98° (E) 23:46:01 145.880/145.840
VELOX 1 18 Jan 23:44:57 23:49:17 54° 75° (ENE) 23:53:37 145.980
ANTELSAT 18 Jan 23:48:30 23:51:11 16° 291° (WNW) 23:53:55 437.575/2403.000
AO-85 18 Jan 23:53:14 23:57:02 50° 61° (ENE) 00:00:52 145.980
POPSAT HIP 1 19 Jan 00:00:08 00:04:16 56° 100° (E) 00:08:25 437.405
DUCHIFAT 1 19 Jan 00:13:17 00:17:28 71° 101° (E) 00:21:40 145.980
NANOSAT C BR1 19 Jan 00:17:49 00:22:02 90° 274° (W) 00:26:15 145.865
DX 1 19 Jan 00:23:13 00:27:34 71° 75° (ENE) 00:31:56 434.975-435.025
UKube-1 19 Jan 00:26:12 00:30:24 53° 75° (ENE) 00:34:37 .
SPROUT 19 Jan 00:27:44 00:31:57 62° 260° (W) 00:36:09 437.525
TISAT 1 19 Jan 00:28:47 00:31:00 14° 69° (ENE) 00:33:13 437.305
CUBEBUG 1 19 Jan 00:37:26 00:40:43 20° 264° (W) 00:44:00 437.445
50 SAT 19 Jan 00:41:51 00:44:59 30° 262° (W) 00:48:11 437.505
AISAT 19 Jan 00:48:37 00:52:13 24° 263° (W) 00:55:48 437.250
BUGSAT 1 19 Jan 00:55:28 00:59:30 76° 102° (ESE) 01:03:33 437.445
YUBILEINY 19 Jan 01:04:11 01:11:29 28° 74° (ENE) 01:18:43 435.215
PCSat 19 Jan 01:04:52 01:10:14 77° 113° (ESE) 01:15:40 145.827
PHONESAT 2.4 19 Jan 01:08:55 01:10:14 14° 143° (SE) 01:11:32 2401.200-2431.200
QB50P1 19 Jan 01:10:03 01:13:00 19° 290° (WNW) 01:15:58 145.935-145.965
POLYITAN 1 19 Jan 01:13:48 01:16:32 17° 290° (WNW) 01:19:18 437.675
QB50P2 19 Jan 01:15:13 01:17:41 15° 291° (WNW) 01:20:11 145.880/145.840
ITUPSAT 1 19 Jan 01:19:26 01:19:48 10° 65° (ENE) 01:20:10 437.325
JAS-2 19 Jan 01:20:48 01:25:04 17° 296° (WNW) 01:29:30 435.910
RS-15 19 Jan 01:21:22 01:32:32 47° 306° (NW) 01:44:13 29.354- 29.394
Cosmos 2504 19 Jan 01:32:59 01:37:40 18° 72° (ENE) 01:42:16 435.465 / 435.565
Cosmos 2491 19 Jan 01:45:23 01:52:53 34° 86° (E) 02:00:23 435.465 / 435.565
BEESAT 19 Jan 01:51:27 01:55:20 26° 70° (ENE) 01:59:13 436.000
AIST 1 19 Jan 01:51:53 01:56:09 85° 81° (E) 02:00:24
SWISSCUBE 19 Jan 01:52:38 01:56:45 30° 71° (ENE) 02:00:52 437.505
Oscar 19 19 Jan 01:57:54 02:03:05 81° 103° (ESE) 02:08:13 437.125/150
Gurwin Techsat 1B 19 Jan 01:57:55 02:02:52 39° 99° (E) 02:07:48 435.225
TISAT 1 19 Jan 02:02:28 02:06:17 34° 261° (W) 02:10:07 437.305
BEESAT 3 19 Jan 02:12:37 02:16:27 45° 60° (ENE) 02:20:16 437.485
ITAMSAT 1 19 Jan 02:38:29 02:41:43 17° 95° (E) 02:44:57 435.822/435.867
PHONESAT 2.4 19 Jan 02:42:01 02:44:11 36° 335° (NNW) 02:46:22 2401.200-2431.200
M-CUBED/EXP-1 PRIME 19 Jan 02:47:21 02:50:21 18° 67° (ENE) 02:53:15 437.505
PCSat 19 Jan 02:51:57 02:54:11 12° 309° (NW) 02:56:25 145.827
ITUPSAT 1 19 Jan 02:52:19 02:57:01 65° 259° (W) 03:01:45 437.325
BEESAT 2 19 Jan 02:53:26 02:57:25 55° 61° (ENE) 03:01:21 435.950
YUBILEINY 19 Jan 03:00:05 03:08:28 50° 270° (W) 03:16:46 435.215
AO-7 19 Jan 03:09:48 03:16:48 29° 98° (E) 03:23:43 29.400- 29.500
Cosmos 2504 19 Jan 03:24:21 03:31:30 60° 268° (W) 03:38:30 435.465 / 435.565
AUBIESAT-1 19 Jan 03:24:21 03:28:26 38° 70° (ENE) 03:32:18 437.475
CUSAT 1 19 Jan 03:28:58 03:33:15 53° 92° (E) 03:38:56 437.405
BEESAT 19 Jan 03:29:08 03:32:58 24° 263° (W) 03:36:50 436.000
SWISSCUBE 19 Jan 03:30:57 03:34:28 21° 264° (W) 03:38:01 437.505
Gurwin Techsat 1B 19 Jan 03:38:41 03:42:29 20° 292° (WNW) 03:46:16 435.225
MOZHAYETS 4 19 Jan 03:38:44 03:43:16 72° 258° (WSW) 03:47:51
Cosmos 2491 19 Jan 03:41:21 03:49:24 42° 282° (WNW) 03:57:32 435.465 / 435.565
RS-15 19 Jan 03:44:23 03:49:24 13° 335° (NNW) 03:54:29 29.354- 29.394
BEESAT 3 19 Jan 03:53:12 03:53:36 10° 253° (WSW) 03:54:01 437.485
STARS 19 Jan 03:53:39 03:56:49 20° 70° (ENE) 03:59:59 437.465
DANDE 19 Jan 04:04:36 04:07:10 20° 86° (E) 04:10:14 436.750
ITAMSAT 1 19 Jan 04:16:22 04:21:18 44° 287° (WNW) 04:26:13 435.822/435.867
BRITE-PL 19 Jan 04:18:27 04:19:28 11° 90° (E) 04:20:27 437.365/2234.400
CUBESAT XI-V 19 Jan 04:20:04 04:24:27 41° 74° (ENE) 04:28:52 437.345
M-CUBED/EXP-1 PRIME 19 Jan 04:20:27 04:24:33 33° 257° (WSW) 04:28:28 437.505
KKS-1 19 Jan 04:30:42 04:35:05 58° 259° (W) 04:39:28 437.445
AIST 2 19 Jan 04:37:43 04:39:55 14° 52° (NE) 04:42:06 435.215
AUBIESAT-1 19 Jan 05:00:22 05:02:48 15° 260° (W) 05:05:10 437.475
AO-7 19 Jan 05:01:42 05:09:39 51° 293° (WNW) 05:17:35 29.400- 29.500
CUSAT 1 19 Jan 05:13:42 05:16:00 13° 296° (WNW) 05:18:30 437.405
STARS 19 Jan 05:29:13 05:32:56 27° 262° (W) 05:36:39 437.465
HORYU 2 19 Jan 05:37:02 05:41:13 39° 99° (E) 05:45:24 437.375
LilacSat-2 19 Jan 05:39:37 05:41:00 12° 94° (E) 05:42:24 437.200
DANDE 19 Jan 05:47:53 05:49:54 14° 292° (WNW) 05:52:11 436.750
BRITE-PL 19 Jan 05:53:40 05:58:20 51° 286° (WNW) 06:02:38 437.365/2234.400
O/OREOS (USA 219) 19 Jan 05:54:28 05:57:37 19° 101° (E) 06:00:47 437.305
GONETS M04 19 Jan 05:54:48 05:57:07 11° 66° (ENE) 05:59:25
ISS 19 Jan 05:57:07 05:59:57 26° 40° (NE) 06:02:45 145.825
Cubesat XI-IV 19 Jan 05:58:06 06:02:13 22° 96° (E) 06:06:20 437.490
CUBESAT XI-V 19 Jan 05:59:23 06:01:56 14° 266° (W) 06:04:29 437.345
GOMX 1 19 Jan 06:05:39 06:10:01 75° 101° (E) 06:14:11 467.674
RS-15 19 Jan 06:09:26 06:10:45 10° 16° (NNE) 06:12:03 29.354- 29.394
NOAA 15 19 Jan 06:12:18 06:17:06 34° 98° (E) 06:21:51 137.62
AIST 2 19 Jan 06:14:32 06:18:35 45° 247° (WSW) 06:22:36 435.215
DOVE 4 19 Jan 06:52:35 06:56:46 85° 279° (W) 07:00:53 437.250
CUTE-I 19 Jan 06:54:20 06:59:41 89° 103° (ESE) 07:05:02 437.470
CINEMA 3 19 Jan 06:56:08 06:59:04 18° 96° (E) 07:02:02 145.822/145.860
STRAND 1 19 Jan 07:04:16 07:09:18 68° 75° (ENE) 07:14:22 437.568
CUTE 1.7 + AOD 2 19 Jan 07:07:19 07:09:14 13° 93° (E) 07:11:09 437.475
LilacSat-2 19 Jan 07:11:50 07:15:20 33° 286° (WNW) 07:18:50 437.200
HORYU 2 19 Jan 07:15:00 07:17:23 14° 292° (WNW) 07:19:46 437.375
PHONESAT 2.4 19 Jan 07:26:08 07:28:11 27° 22° (NNE) 07:30:13 2401.200-2431.200
NOAA 18 19 Jan 07:28:53 07:34:21 84° 286° (WNW) 07:39:48 137.9125
O/OREOS (USA 219) 19 Jan 07:32:55 07:36:46 28° 294° (WNW) 07:40:37 437.305
ISS 19 Jan 07:33:56 07:36:15 18° 233° (SW) 07:38:34 145.825
CANX-2 19 Jan 07:34:26 07:38:22 34° 98° (E) 07:42:16 2200.000
Cubesat XI-IV 19 Jan 07:37:29 07:42:16 34° 289° (WNW) 07:47:02 437.490
Cosmos 2499 19 Jan 07:41:19 07:48:27 89° 103° (ESE) 07:55:33 435.465 / 435.565
GONETS M04 19 Jan 07:46:22 07:55:14 78° 84° (E) 08:04:05
SEEDS 19 Jan 07:48:56 07:52:35 27° 97° (E) 07:56:11 437.485
NOAA 15 19 Jan 07:52:30 07:56:37 23° 291° (WNW) 08:00:42 137.62
COMPASS 1 19 Jan 07:57:33 08:00:48 22° 96° (E) 08:04:02 437.405
CUBEBUG 2 19 Jan 08:00:34 08:04:05 23° 97° (E) 08:07:39 437.445
HO-68 19 Jan 08:09:33 08:16:43 72° 104° (ESE) 08:23:50 435.675
AAUSAT CUBESAT 2 19 Jan 08:10:18 08:13:39 23° 96° (E) 08:16:57 437.432
RS-15 19 Jan 08:18:02 08:28:56 35° 48° (NE) 08:39:23 29.354- 29.394
SO-50 19 Jan 08:18:22 08:23:08 86° 297° (WNW) 08:27:50 436.795
UWE-3 19 Jan 08:31:45 08:35:44 33° 98° (E) 08:39:48 435.000/436.395/437.385
FUNcube-1 19 Jan 08:32:31 08:35:30 18° 95° (E) 08:38:29 145.935
CINEMA 3 19 Jan 08:32:37 08:36:08 26° 287° (WNW) 08:39:43 145.822/145.860
PRISM 19 Jan 08:38:35 08:42:12 29° 72° (ENE) 08:45:50 437.425
CUTE 1.7 + AOD 2 19 Jan 08:41:10 08:45:09 38° 286° (WNW) 08:49:07 437.475
ZACube-1 19 Jan 08:53:48 08:57:52 35° 99° (E) 09:01:58 437.345
PHONESAT 2.4 19 Jan 09:00:26 09:02:13 19° 216° (SW) 09:04:00 2401.200-2431.200
ANTELSAT 19 Jan 09:05:36 09:08:10 16° 70° (ENE) 09:10:45 437.575/2403.000
CANX-2 19 Jan 09:11:24 09:13:52 15° 291° (WNW) 09:16:20 2200.000
SEEDS 19 Jan 09:25:07 09:28:01 18° 290° (WNW) 09:30:55 437.485
Oscar 11 19 Jan 09:32:43 09:37:05 89° 85° (E) 09:41:27 145.826/435.025
COMPASS 1 19 Jan 09:32:57 09:36:12 22° 289° (WNW) 09:39:26 437.405
CUBEBUG 2 19 Jan 09:37:07 09:40:32 23° 288° (WNW) 09:44:03 437.445
DELFI C3 19 Jan 09:39:46 09:43:16 29° 97° (E) 09:46:44 145.870
JAS-2 19 Jan 09:43:39 09:46:36 15° 64° (ENE) 09:49:39 435.910
AAUSAT CUBESAT 2 19 Jan 09:45:49 09:48:56 20° 289° (WNW) 09:52:01 437.432
GONETS M04 19 Jan 09:45:58 09:50:57 17° 279° (W) 09:55:57
PCSat 19 Jan 09:59:13 10:03:11 20° 56° (NE) 10:07:07 145.827
HO-68 19 Jan 09:59:15 10:03:40 18° 299° (WNW) 10:08:05 435.675
FUNcube-1 19 Jan 10:07:49 10:11:41 31° 287° (WNW) 10:15:36 145.935
UWE-3 19 Jan 10:09:08 10:11:54 17° 290° (WNW) 10:14:41 435.000/436.395/437.385
UNISAT 6 19 Jan 10:11:35 10:15:51 73° 260° (W) 10:20:06 437.425
PRISM 19 Jan 10:14:53 10:17:28 16° 265° (W) 10:20:04 437.425
TIGRISAT 19 Jan 10:25:29 10:29:39 52° 260° (W) 10:33:48 435.000
POLYITAN 1 19 Jan 10:26:57 10:28:10 11° 68° (ENE) 10:29:24 437.675
QB50P2 19 Jan 10:27:32 10:29:20 13° 68° (ENE) 10:31:07 145.880/145.840
RS-15 19 Jan 10:30:06 10:42:07 65° 249° (WSW) 10:53:35 29.354- 29.394
ZACube-1 19 Jan 10:31:10 10:33:48 16° 290° (WNW) 10:36:28 437.345
ANTELSAT 19 Jan 10:40:47 10:44:36 31° 262° (W) 10:48:24 437.575/2403.000
BY70-1 19 Jan 10:45:26 10:47:36 17° 95° (E) 10:49:41 436.1900
POPSAT HIP 1 19 Jan 10:47:58 10:51:04 20° 71° (ENE) 10:54:10 437.405
HUMSAT D 19 Jan 10:52:45 10:56:58 59° 284° (WNW) 11:01:11 437.325/437.525
DUCHIFAT 1 19 Jan 11:00:10 11:03:33 24° 72° (ENE) 11:06:55 145.980
NANOSAT C BR1 19 Jan 11:04:39 11:08:20 31° 73° (ENE) 11:12:01 145.865
DELFI C3 19 Jan 11:15:31 11:17:46 15° 290° (WNW) 11:19:59 145.870
ESTCUBE 1 19 Jan 11:23:35 11:27:35 31° 98° (E) 11:31:33 437.505/2401.250
JAS-2 19 Jan 11:26:05 11:31:06 50° 260° (W) 11:36:29 435.910
BUGSAT 1 19 Jan 11:40:15 11:43:33 24° 72° (ENE) 11:46:50 437.445
PCSat 19 Jan 11:41:36 11:46:44 44° 250° (WSW) 11:51:50 145.827
VELOX 1 19 Jan 11:41:44 11:44:22 15° 95° (E) 11:46:58 145.980
QB50P1 19 Jan 11:55:41 11:59:45 50° 260° (W) 12:03:51 145.935-145.965
POLYITAN 1 19 Jan 11:59:30 12:03:31 44° 260° (W) 12:07:31 437.675
QB50P2 19 Jan 12:00:46 12:04:43 39° 261° (W) 12:08:40 145.880/145.840
Cosmos 2491 19 Jan 12:06:18 12:08:13 11° 66° (ENE) 12:10:09 435.465 / 435.565
50 SAT 19 Jan 12:12:41 12:15:39 24° 97° (E) 12:18:34 437.505
BY70-1 19 Jan 12:15:46 12:17:47 15° 290° (WNW) 12:19:43 436.1900
DX 1 19 Jan 12:17:49 12:20:50 18° 96° (E) 12:23:51 434.975-435.025
SPROUT 19 Jan 12:19:04 12:22:53 32° 98° (E) 12:26:42 437.525
UKube-1 19 Jan 12:20:17 12:22:26 13° 95° (E) 12:24:33 .
POPSAT HIP 1 19 Jan 12:23:17 12:26:40 23° 263° (W) 12:30:02 437.405
CUBEBUG 1 19 Jan 12:30:05 12:34:24 71° 283° (WNW) 12:38:40 437.445
DUCHIFAT 1 19 Jan 12:36:07 12:39:07 19° 264° (W) 12:42:08 145.980
NANOSAT C BR1 19 Jan 12:41:34 12:44:03 15° 265° (W) 12:46:31 145.865
AISAT 19 Jan 12:43:03 12:47:26 83° 285° (WNW) 12:51:48 437.250
ESTCUBE 1 19 Jan 13:00:59 13:04:07 19° 291° (WNW) 13:07:13 437.505/2401.250
Oscar 19 19 Jan 13:09:03 13:14:12 67° 75° (ENE) 13:19:22 437.125/150
Gurwin Techsat 1B 19 Jan 13:13:40 13:18:29 37° 72° (ENE) 13:23:19 435.225
BUGSAT 1 19 Jan 13:15:57 13:18:49 19° 264° (W) 13:21:42 437.445
VELOX 1 19 Jan 13:16:54 13:20:51 33° 287° (WNW) 13:24:46 145.980
50 SAT 19 Jan 13:46:50 13:48:35 13° 290° (WNW) 13:50:18 437.505
TISAT 1 19 Jan 13:51:10 13:55:13 50° 100° (E) 13:59:17 437.305
ITAMSAT 1 19 Jan 13:51:50 13:54:45 15° 66° (ENE) 13:57:39 435.822/435.867
DX 1 19 Jan 13:53:17 13:56:57 27° 288° (WNW) 14:00:37 434.975-435.025
UKube-1 19 Jan 13:54:34 13:58:32 37° 287° (WNW) 14:02:29 .
SPROUT 19 Jan 13:55:57 13:58:30 16° 291° (WNW) 14:01:03 437.525
Cosmos 2491 19 Jan 13:57:33 14:06:22 77° 84° (E) 14:15:10 435.465 / 435.565
YUBILEINY 19 Jan 13:57:43 14:05:38 39° 87° (E) 14:13:35 435.215
SWISSCUBE 19 Jan 14:00:08 14:01:49 12° 93° (E) 14:03:31 437.505
AO-85 19 Jan 14:01:27 14:06:20 71° 116° (ESE) 14:10:52 145.980
AO-7 19 Jan 14:03:31 14:10:01 26° 61° (ENE) 14:16:31 29.400- 29.500
Cosmos 2504 19 Jan 14:03:58 14:10:01 21° 84° (E) 14:15:52 435.465 / 435.565
CUSAT 1 19 Jan 14:07:09 14:14:24 37° 75° (ENE) 14:21:01 437.405
JUGNU 19 Jan 14:08:05 14:12:12 20° 167° (SSE) 14:16:21 437.505
AIST 1 19 Jan 14:15:02 14:19:22 65° 94° (E) 14:23:41
